Time,TemperatureF,DewpointF,PressureIn,WindDirection,WindDirectionDegrees,WindSpeedMPH,WindSpeedGustMPH,Humidity,HourlyPrecipIn,Conditions,Clouds,dailyrainin,SolarRadiationWatts/m^2,SoftwareType,DateUTC
2013-05-30 00:03:00,67.0,57.0,-100.00,SW,215,6.0,11.0,70,0.00,,,0.00,0.000000,,2013-05-30 04:03:00,
2013-05-30 00:10:00,66.0,57.0,-100.00,SW,216,6.0,12.0,73,0.00,,,0.00,0.000000,,2013-05-30 04:10:00,
2013-05-30 00:33:00,66.0,57.0,-100.00,SW,216,6.0,12.0,73,0.00,,,0.00,0.000000,,2013-05-30 04:33:00,
2013-05-30 00:42:00,66.0,57.0,-100.00,SW,216,6.0,12.0,73,0.00,,,0.00,0.000000,,2013-05-30 04:42:00,
2013-05-30 00:53:00,66.0,57.0,-100.00,SW,216,6.0,12.0,73,0.00,,,0.00,0.000000,,2013-05-30 04:53:00,
2013-05-30 01:02:00,66.0,57.0,-100.00,SW,216,6.0,12.0,73,0.00,,,0.00,0.000000,,2013-05-30 05:02:00,
2013-05-30 01:10:00,66.0,58.0,-100.00,SW,218,6.0,14.0,75,0.00,,,0.00,0.000000,,2013-05-30 05:10:00,
2013-05-30 01:32:00,66.0,58.0,-100.00,SW,218,6.0,14.0,75,0.00,,,0.00,0.000000,,2013-05-30 05:32:00,
2013-05-30 01:43:00,66.0,58.0,-100.00,SW,218,6.0,14.0,75,0.00,,,0.00,0.000000,,2013-05-30 05:43:00,
2013-05-30 01:52:00,66.0,58.0,-100.00,SW,218,6.0,14.0,75,0.00,,,0.00,0.000000,,2013-05-30 05:52:00,
2013-05-30 02:01:00,66.0,58.0,-100.00,SW,218,6.0,14.0,75,0.00,,,0.00,0.000000,,2013-05-30 06:01:00,
2013-05-30 02:10:00,66.0,59.0,-100.00,SSW,204,5.0,12.0,78,0.00,,,0.00,0.000000,,2013-05-30 06:10:00,
2013-05-30 02:32:00,66.0,59.0,-100.00,SSW,204,5.0,12.0,78,0.00,,,0.00,0.000000,,2013-05-30 06:32:00,
2013-05-30 02:42:00,66.0,59.0,-100.00,SSW,204,5.0,12.0,78,0.00,,,0.00,0.000000,,2013-05-30 06:42:00,
2013-05-30 02:52:00,66.0,59.0,-100.00,SSW,204,5.0,12.0,78,0.00,,,0.00,0.000000,,2013-05-30 06:52:00,
2013-05-30 03:01:00,66.0,59.0,-100.00,SSW,204,5.0,12.0,78,0.00,,,0.00,0.000000,,2013-05-30 07:01:00,
2013-05-30 03:10:00,66.0,59.0,-100.00,SSW,212,6.0,14.0,78,0.00,,,0.00,0.000000,,2013-05-30 07:10:00,
2013-05-30 03:32:00,66.0,59.0,-100.00,SSW,212,6.0,14.0,78,0.00,,,0.00,0.000000,,2013-05-30 07:32:00,
2013-05-30 03:42:00,66.0,59.0,-100.00,SSW,212,6.0,14.0,78,0.00,,,0.00,0.000000,,2013-05-30 07:42:00,
2013-05-30 03:52:00,66.0,59.0,-100.00,SSW,212,6.0,14.0,78,0.00,,,0.00,0.000000,,2013-05-30 07:52:00,
2013-05-30 04:02:00,66.0,59.0,-100.00,SSW,212,6.0,14.0,78,0.00,,,0.00,0.000000,,2013-05-30 08:02:00,
2013-05-30 04:10:00,64.0,59.0,-100.00,SW,217,4.0,12.0,84,0.00,,,0.00,0.000000,,2013-05-30 08:10:00,
2013-05-30 04:32:00,64.0,59.0,-100.00,SW,217,4.0,12.0,84,0.00,,,0.00,0.000000,,2013-05-30 08:32:00,
2013-05-30 04:42:00,64.0,59.0,-100.00,SW,217,4.0,12.0,84,0.00,,,0.00,0.000000,,2013-05-30 08:42:00,
2013-05-30 04:53:00,64.0,59.0,-100.00,SW,217,4.0,12.0,84,0.00,,,0.00,0.000000,,2013-05-30 08:53:00,
2013-05-30 05:01:00,64.0,59.0,-100.00,SW,217,4.0,12.0,84,0.00,,,0.00,0.000000,,2013-05-30 09:01:00,
2013-05-30 05:10:00,61.0,58.0,-100.00,SSW,207,4.0,9.0,89,0.00,,,0.00,0.000000,,2013-05-30 09:10:00,
2013-05-30 05:33:00,61.0,58.0,-100.00,SSW,207,4.0,9.0,89,0.00,,,0.00,0.000000,,2013-05-30 09:33:00,
2013-05-30 05:43:00,61.0,58.0,-100.00,SSW,207,4.0,9.0,89,0.00,,,0.00,0.000000,,2013-05-30 09:43:00,
2013-05-30 05:53:00,61.0,58.0,-100.00,SSW,207,4.0,9.0,89,0.00,,,0.00,0.000000,,2013-05-30 09:53:00,
2013-05-30 06:03:00,61.0,58.0,-100.00,SSW,207,4.0,9.0,89,0.00,,,0.00,0.000000,,2013-05-30 10:03:00,
2013-05-30 06:10:00,61.0,59.0,-100.00,SW,234,2.0,7.0,94,0.00,,,0.00,0.000000,,2013-05-30 10:10:00,
2013-05-30 06:33:00,61.0,59.0,-100.00,SW,234,2.0,7.0,94,0.00,,,0.00,0.000000,,2013-05-30 10:33:00,
2013-05-30 06:42:00,61.0,59.0,-100.00,SW,234,2.0,7.0,94,0.00,,,0.00,0.000000,,2013-05-30 10:42:00,
2013-05-30 06:52:00,61.0,59.0,-100.00,SW,234,2.0,7.0,94,0.00,,,0.00,0.000000,,2013-05-30 10:52:00,
2013-05-30 07:03:00,61.0,59.0,-100.00,SW,234,2.0,7.0,94,0.00,,,0.00,0.000000,,2013-05-30 11:03:00,
2013-05-30 07:10:00,64.0,60.0,-100.00,SW,223,4.0,8.0,87,0.00,,,0.00,0.000000,,2013-05-30 11:10:00,
2013-05-30 07:32:00,64.0,60.0,-100.00,SW,223,4.0,8.0,87,0.00,,,0.00,0.000000,,2013-05-30 11:32:00,
2013-05-30 07:42:00,64.0,60.0,-100.00,SW,223,4.0,8.0,87,0.00,,,0.00,0.000000,,2013-05-30 11:42:00,
2013-05-30 07:52:00,64.0,60.0,-100.00,SW,223,4.0,8.0,87,0.00,,,0.00,0.000000,,2013-05-30 11:52:00,
2013-05-30 08:02:00,64.0,60.0,-100.00,SW,223,4.0,8.0,87,0.00,,,0.00,0.000000,,2013-05-30 12:02:00,
2013-05-30 08:10:00,65.0,60.0,-100.00,SW,217,3.0,9.0,84,0.00,,,0.00,0.000000,,2013-05-30 12:10:00,
2013-05-30 08:32:00,65.0,60.0,-100.00,SW,217,3.0,9.0,84,0.00,,,0.00,0.000000,,2013-05-30 12:32:00,
2013-05-30 08:42:00,65.0,60.0,-100.00,SW,217,3.0,9.0,84,0.00,,,0.00,0.000000,,2013-05-30 12:42:00,
2013-05-30 08:52:00,65.0,60.0,-100.00,SW,217,3.0,9.0,84,0.00,,,0.00,0.000000,,2013-05-30 12:52:00,
2013-05-30 09:01:00,65.0,60.0,-100.00,SW,217,3.0,9.0,84,0.00,,,0.00,0.000000,,2013-05-30 13:01:00,
2013-05-30 09:10:00,71.0,61.0,-100.00,SW,225,3.0,7.0,71,0.00,,,0.00,0.000000,,2013-05-30 13:10:00,
2013-05-30 09:32:00,71.0,61.0,-100.00,SW,225,3.0,7.0,71,0.00,,,0.00,0.000000,,2013-05-30 13:32:00,
2013-05-30 09:42:00,71.0,61.0,-100.00,SW,225,3.0,7.0,71,0.00,,,0.00,0.000000,,2013-05-30 13:42:00,
2013-05-30 09:52:00,71.0,61.0,-100.00,SW,225,3.0,7.0,71,0.00,,,0.00,0.000000,,2013-05-30 13:52:00,
2013-05-30 10:02:00,71.0,61.0,-100.00,SW,225,3.0,7.0,71,0.00,,,0.00,0.000000,,2013-05-30 14:02:00,
2013-05-30 10:10:00,73.0,63.0,-100.00,SSW,212,6.0,12.0,70,0.00,,,0.00,0.000000,,2013-05-30 14:10:00,
2013-05-30 10:32:00,73.0,63.0,-100.00,SSW,212,6.0,12.0,70,0.00,,,0.00,0.000000,,2013-05-30 14:32:00,
2013-05-30 10:42:00,73.0,63.0,-100.00,SSW,212,6.0,12.0,70,0.00,,,0.00,0.000000,,2013-05-30 14:42:00,
2013-05-30 10:52:00,73.0,63.0,-100.00,SSW,212,6.0,12.0,70,0.00,,,0.00,0.000000,,2013-05-30 14:52:00,
2013-05-30 11:01:00,73.0,63.0,-100.00,SSW,212,6.0,12.0,70,0.00,,,0.00,0.000000,,2013-05-30 15:01:00,
2013-05-30 11:10:00,78.0,65.0,30.36,SSW,213,6.0,-999.0,64,0.00,,,0.00,0.000000,,2013-05-30 15:10:00,
2013-05-30 11:33:00,78.0,65.0,30.36,SSW,213,6.0,-999.0,64,0.00,,,0.00,0.000000,,2013-05-30 15:33:00,
2013-05-30 11:43:00,78.0,65.0,30.36,SSW,213,6.0,-999.0,64,0.00,,,0.00,0.000000,,2013-05-30 15:43:00,
2013-05-30 11:53:00,78.0,65.0,30.36,SSW,213,6.0,-999.0,64,0.00,,,0.00,0.000000,,2013-05-30 15:53:00,
2013-05-30 12:03:00,78.0,65.0,30.36,SSW,213,6.0,-999.0,64,0.00,,,0.00,0.000000,,2013-05-30 16:03:00,
2013-05-30 12:10:00,79.0,62.0,30.35,SSW,204,7.0,17.0,57,0.00,,,0.00,0.000000,,2013-05-30 16:10:00,
2013-05-30 12:33:00,79.0,62.0,30.35,SSW,204,7.0,17.0,57,0.00,,,0.00,0.000000,,2013-05-30 16:33:00,
2013-05-30 12:42:00,79.0,62.0,30.35,SSW,204,7.0,17.0,57,0.00,,,0.00,0.000000,,2013-05-30 16:42:00,
2013-05-30 12:53:00,79.0,62.0,30.35,SSW,204,7.0,17.0,57,0.00,,,0.00,0.000000,,2013-05-30 16:53:00,
2013-05-30 13:02:00,79.0,62.0,30.35,SSW,204,7.0,17.0,57,0.00,,,0.00,0.000000,,2013-05-30 17:02:00,
2013-05-30 13:10:00,77.0,60.0,30.34,SSW,213,7.0,20.0,56,0.00,,,0.00,1088.000000,,2013-05-30 17:10:00,
2013-05-30 13:32:00,77.0,60.0,30.34,SSW,213,7.0,20.0,56,0.00,,,0.00,1088.000000,,2013-05-30 17:32:00,
2013-05-30 13:42:00,77.0,60.0,30.34,SSW,213,7.0,20.0,56,0.00,,,0.00,1088.000000,,2013-05-30 17:42:00,
2013-05-30 13:52:00,77.0,60.0,30.34,SSW,213,7.0,20.0,56,0.00,,,0.00,1088.000000,,2013-05-30 17:52:00,
2013-05-30 14:02:00,77.0,60.0,30.34,SSW,213,7.0,20.0,56,0.00,,,0.00,1088.000000,,2013-05-30 18:02:00,
2013-05-30 14:10:00,80.0,60.0,30.32,SSW,201,7.0,17.0,51,0.00,,,0.00,1094.000000,,2013-05-30 18:10:00,
2013-05-30 14:32:00,80.0,60.0,30.32,SSW,201,7.0,17.0,51,0.00,,,0.00,1094.000000,,2013-05-30 18:32:00,
2013-05-30 14:43:00,80.0,60.0,30.32,SSW,201,7.0,17.0,51,0.00,,,0.00,1094.000000,,2013-05-30 18:43:00,
2013-05-30 14:52:00,80.0,60.0,30.32,SSW,201,7.0,17.0,51,0.00,,,0.00,1094.000000,,2013-05-30 18:52:00,
2013-05-30 15:02:00,80.0,60.0,30.32,SSW,201,7.0,17.0,51,0.00,,,0.00,1094.000000,,2013-05-30 19:02:00,
2013-05-30 15:10:00,80.0,62.0,30.31,South,190,7.0,19.0,55,0.00,,,0.00,1237.000000,,2013-05-30 19:10:00,
2013-05-30 15:32:00,80.0,62.0,30.31,South,190,7.0,19.0,55,0.00,,,0.00,1237.000000,,2013-05-30 19:32:00,
2013-05-30 15:42:00,80.0,62.0,30.31,South,190,7.0,19.0,55,0.00,,,0.00,1237.000000,,2013-05-30 19:42:00,
2013-05-30 15:53:00,80.0,62.0,30.31,South,190,7.0,19.0,55,0.00,,,0.00,1237.000000,,2013-05-30 19:53:00,
2013-05-30 16:02:00,80.0,62.0,30.31,South,190,7.0,19.0,55,0.00,,,0.00,1237.000000,,2013-05-30 20:02:00,
2013-05-30 16:10:00,80.0,62.0,30.30,SSW,198,7.0,16.0,54,0.00,,,0.00,1126.000000,,2013-05-30 20:10:00,
2013-05-30 16:33:00,80.0,62.0,30.30,SSW,198,7.0,16.0,54,0.00,,,0.00,1126.000000,,2013-05-30 20:33:00,
2013-05-30 16:42:00,80.0,62.0,30.30,SSW,198,7.0,16.0,54,0.00,,,0.00,1126.000000,,2013-05-30 20:42:00,
2013-05-30 16:52:00,80.0,62.0,30.30,SSW,198,7.0,16.0,54,0.00,,,0.00,1126.000000,,2013-05-30 20:52:00,
2013-05-30 17:01:00,80.0,62.0,30.30,SSW,198,7.0,16.0,54,0.00,,,0.00,1126.000000,,2013-05-30 21:01:00,
2013-05-30 17:10:00,81.0,59.0,30.29,SSW,195,6.0,16.0,48,0.00,,,0.00,900.000000,,2013-05-30 21:10:00,
2013-05-30 17:33:00,81.0,59.0,30.29,SSW,195,6.0,16.0,48,0.00,,,0.00,900.000000,,2013-05-30 21:33:00,
2013-05-30 17:43:00,81.0,59.0,30.29,SSW,195,6.0,16.0,48,0.00,,,0.00,900.000000,,2013-05-30 21:43:00,
2013-05-30 17:53:00,81.0,59.0,30.29,SSW,195,6.0,16.0,48,0.00,,,0.00,900.000000,,2013-05-30 21:53:00,
2013-05-30 18:02:00,81.0,59.0,30.29,SSW,195,6.0,16.0,48,0.00,,,0.00,900.000000,,2013-05-30 22:02:00,
2013-05-30 18:10:00,78.0,57.0,30.28,SSW,200,6.0,13.0,49,0.00,,,0.00,901.000000,,2013-05-30 22:10:00,
2013-05-30 18:33:00,78.0,57.0,30.28,SSW,200,6.0,13.0,49,0.00,,,0.00,901.000000,,2013-05-30 22:33:00,
2013-05-30 18:42:00,78.0,57.0,30.28,SSW,200,6.0,13.0,49,0.00,,,0.00,901.000000,,2013-05-30 22:42:00,
2013-05-30 18:52:00,78.0,57.0,30.28,SSW,200,6.0,13.0,49,0.00,,,0.00,901.000000,,2013-05-30 22:52:00,
2013-05-30 19:02:00,78.0,57.0,30.28,SSW,200,6.0,13.0,49,0.00,,,0.00,901.000000,,2013-05-30 23:02:00,
2013-05-30 19:10:00,75.0,59.0,30.28,SSW,200,6.0,14.0,58,0.00,,,0.00,387.000000,,2013-05-30 23:10:00,
2013-05-30 19:32:00,75.0,59.0,30.28,SSW,200,6.0,14.0,58,0.00,,,0.00,387.000000,,2013-05-30 23:32:00,
2013-05-30 19:42:00,75.0,59.0,30.28,SSW,200,6.0,14.0,58,0.00,,,0.00,387.000000,,2013-05-30 23:42:00,
2013-05-30 19:52:00,75.0,59.0,30.28,SSW,200,6.0,14.0,58,0.00,,,0.00,387.000000,,2013-05-30 23:52:00,
2013-05-30 20:01:00,75.0,59.0,30.28,SSW,200,6.0,14.0,58,0.00,,,0.00,387.000000,,2013-05-31 00:01:00,
2013-05-30 20:10:00,70.0,59.0,30.28,South,176,7.0,13.0,68,0.00,,,-99.99,340.000000,,2013-05-31 00:10:00,
2013-05-30 20:32:00,70.0,59.0,30.28,South,176,7.0,13.0,68,0.00,,,-99.99,340.000000,,2013-05-31 00:32:00,
2013-05-30 20:42:00,70.0,59.0,30.28,South,176,7.0,13.0,68,0.00,,,-99.99,340.000000,,2013-05-31 00:42:00,
2013-05-30 20:52:00,70.0,59.0,30.28,South,176,7.0,13.0,68,0.00,,,-99.99,340.000000,,2013-05-31 00:52:00,
2013-05-30 21:01:00,70.0,59.0,30.28,South,176,7.0,13.0,68,0.00,,,-99.99,340.000000,,2013-05-31 01:01:00,
2013-05-30 21:10:00,69.0,59.0,30.28,SSW,196,6.0,14.0,71,0.00,,,0.00,87.000000,,2013-05-31 01:10:00,
2013-05-30 21:32:00,69.0,59.0,30.28,SSW,196,6.0,14.0,71,0.00,,,0.00,87.000000,,2013-05-31 01:32:00,
2013-05-30 21:42:00,69.0,59.0,30.28,SSW,196,6.0,14.0,71,0.00,,,0.00,87.000000,,2013-05-31 01:42:00,
2013-05-30 21:52:00,69.0,59.0,30.28,SSW,196,6.0,14.0,71,0.00,,,0.00,87.000000,,2013-05-31 01:52:00,
2013-05-30 22:02:00,69.0,59.0,30.28,SSW,196,6.0,14.0,71,0.00,,,0.00,87.000000,,2013-05-31 02:02:00,
2013-05-30 22:10:00,68.0,56.0,30.30,SSW,213,7.0,15.0,65,0.00,,,0.00,4.000000,,2013-05-31 02:10:00,
2013-05-30 22:32:00,68.0,56.0,30.30,SSW,213,7.0,15.0,65,0.00,,,0.00,4.000000,,2013-05-31 02:32:00,
2013-05-30 22:42:00,68.0,56.0,30.30,SSW,213,7.0,15.0,65,0.00,,,0.00,4.000000,,2013-05-31 02:42:00,
2013-05-30 22:52:00,68.0,56.0,30.30,SSW,213,7.0,15.0,65,0.00,,,0.00,4.000000,,2013-05-31 02:52:00,
2013-05-30 23:01:00,68.0,56.0,30.30,SSW,213,7.0,15.0,65,0.00,,,0.00,4.000000,,2013-05-31 03:01:00,
2013-05-30 23:10:00,67.0,57.0,30.30,SW,216,6.0,13.0,70,0.00,,,0.00,0.000000,,2013-05-31 03:10:00,
2013-05-30 23:33:00,67.0,57.0,30.30,SW,216,6.0,13.0,70,0.00,,,0.00,0.000000,,2013-05-31 03:33:00,
2013-05-30 23:43:00,67.0,57.0,30.30,SW,216,6.0,13.0,70,0.00,,,0.00,0.000000,,2013-05-31 03:43:00,
2013-05-30 23:53:00,67.0,57.0,30.30,SW,216,6.0,13.0,70,0.00,,,0.00,0.000000,,2013-05-31 03:53:00,